Location: Kings Park
(40.8862°N, 73.2573°W)
Time: 05:35:41
(UTC+00:00)

Okean O Rocket - Pass Details

Date: 29 October 2020
Orbit: 623 x 644 km, 98.2° (Epoch: 29 November)

Event Time Altitude Azimuth Distance (km) Brightness Sun altitude
Rises 22:12:38 0° 162° (SSE) 2,907 5.0 -4.6°
Reaches altitude 10° 22:14:49 10° 161° (SSE) 2,001 4.1 -5.0°
Maximum altitude 22:19:10 79° 76° (ENE) 644 1.6 -5.8°
Drops below altitude 10° 22:23:31 10° 350° (N) 2,006 4.2 -6.6°
Sets 22:25:43 0° 349° (N) 2,915 5.0 -7.0°
